Location: Dammartin
(48.9032°N, 1.6195°E)
Time: 11:58:57
(UTC+00:00)

Cosmos 1633 - Pass Details

Date: 03 February 2023
Orbit: 424 x 432 km, 82.5° (Epoch: 25 March)

Event Time Altitude Azimuth Distance (km) Brightness Sun altitude
Rises 19:15:11 0° 213° (SSW) 2,376 6.5 -23.4°
Maximum altitude 19:20:17 28° 287° (WNW) 838 4.4 -24.2°
Enters shadow 19:22:24 15° 340° (NNW) 1,255 4.9 -24.6°
